Home   Weather   Elbląg   Past weeks

Flag for Poland Past Weather in Elbląg, Poland — Yesterday and Last 2 Weeks

Now
39 °F

Clear.


Feels Like: 36 °F
Forecast: 32 / 55 °F
Wind: 5 mph from East

Location: Hel

Current Time: May 1, 2017 at 1:03:58 am

Latest Report: May 1, 2017 at 12:00 am


Visibility: 13 mi

Pressure: 30.28 "Hg

Humidity: 84%

Dew Point: 35 °F

Location of ElblągLocation

Past Weather in Elbląg — Graph

°F

Elbląg Temperature Yesterday

Maximum temperature yesterday: 49 °F (at 12:00 pm)
Minimum temperature yesterday: 33 °F (at 6:00 am)
Average temperature yesterday: 42 °F

High & Low Weather Summary for the Past Weeks

 TemperatureHumidityPressure
High53 °F (Apr 21, 3:00 pm)98% (Apr 28, 6:00 am)30.56 "Hg (Apr 28, 6:00 am)
Low27 °F (Apr 17, 6:00 am)43% (Apr 20, 12:00 pm)29.55 "Hg (Apr 16, 12:00 am)
Average41 °F76%30.01 "Hg
* Reported Apr 15 11:00 pm — Apr 30 11:00 pm, Elbląg, Weather by CustomWeather, © 2017

Note: Actual official high and low records may vary slightly from our data, if they occured in-between our weather recording intervals... More about our weather records

Advertising

Elbląg Weather History for the Previous 24 Hours

Scroll right to see more
 ConditionsComfort  
Time TempWeatherWind HumidityBarometerVisibility
11:00 pm
Sun, Apr 30
39 °FClear.5 mph84%30.28 "Hg12 mi
10:00 pm40 °FClear.5 mph86%30.28 "Hg12 mi
9:00 pm40 °FClear.3 mph82%30.29 "Hg12 mi
8:00 pm42 °FSunny.3 mph74%30.28 "Hg12 mi
7:00 pm44 °FSunny.2 mph65%30.27 "Hg12 mi
6:00 pm46 °FSunny.2 mph49%30.28 "Hg12 mi
5:00 pm48 °FPassing clouds.2 mph51%30.29 "Hg12 mi
4:00 pm47 °FPassing clouds.3 mph47%30.29 "Hg19 mi
3:00 pm48 °FPassing clouds.3 mph53%30.29 "Hg19 mi
2:00 pm48 °FPassing clouds.5 mph52%30.29 "Hg19 mi
1:00 pm49 °FPassing clouds.2 mph45%30.29 "Hg19 mi
12:00 pm49 °FPassing clouds.3 mph45%30.28 "Hg19 mi
11:00 am48 °FPassing clouds.3 mph51%30.27 "Hg19 mi
10:00 am47 °FPassing clouds.2 mph51%30.27 "Hg19 mi
9:00 am45 °FPassing clouds.2 mph61%30.26 "Hg19 mi
8:00 am42 °FSunny.3 mph75%30.24 "Hg16 mi
7:00 am36 °FSunny.2 mph97%30.23 "Hg12 mi
6:00 am33 °FPassing clouds.2 mph96%30.21 "Hg12 mi
5:00 am34 °FPassing clouds.3 mph93%30.20 "Hg12 mi
4:00 am36 °FPassing clouds.3 mph91%30.18 "Hg12 mi
3:00 am36 °FPassing clouds.3 mph91%30.16 "Hg12 mi
2:00 am37 °FPassing clouds.2 mph88%30.14 "Hg12 mi
1:00 am38 °FPassing clouds.2 mph85%30.13 "Hg12 mi
Weather by CustomWeather, © 2017

See weather overviewHow to use our weather pages